Location: Borovka
(49.7741°N, 14.5280°E)
Time: 18:01:24
(UTC+00:00)

BREEZE-M DEB (TANK) - Pass Details

Date: 17 November 2025
Orbit: 274 x 13340 km, 49.5° (Epoch: 10 December)

Event Time Altitude Azimuth Distance (km) Brightness Sun altitude
Rises 17:49:29 0° 251° (WSW) 2,274 7.2 -24.5°
Reaches altitude 10° 17:50:48 10° 249° (WSW) 1,653 6.2 -24.7°
Maximum altitude 17:54:01 76° 163° (SSE) 825 3.5 -25.3°
Enters shadow 17:54:41 65° 105° (ESE) 963 3.6 -25.4°
